This is the latest recevied weather packets stored in our database for station/object ON7AMI-5. If no packets are shown the sender has not sent any weather packets the latest 1 day(s).
| Time | Temp. | Humidity | Pressure | Rain* | Wind** | Luminosity | Snow |
|---|---|---|---|---|---|---|---|
| 1778020538 | 10.56° C | 92% | 1010.8 hPa | 0 mm | 0 m/s | - | - |
| 1778020239 | 10.56° C | 92% | 1010.8 hPa | 0 mm | 0 m/s | - | - |
| 1778019939 | 10.56° C | 92% | 1010.8 hPa | 0 mm | 1.34 m/s, 29° | - | - |
| 1778019639 | 10.56° C | 92% | 1010.8 hPa | 0 mm | 0.89 m/s, 42° | - | - |
| 1778019339 | 11.11° C | 92% | 1010.8 hPa | 0 mm | 2.24 m/s, 61° | - | - |
| 1778019039 | 11.11° C | 92% | 1010.9 hPa | 0 mm | 1.34 m/s, 0° | - | - |
| 1778018729 | 11.11° C | 92% | 1010.9 hPa | 0 mm | 2.68 m/s, 43° | - | - |
| 1778018430 | 11.11° C | 92% | 1010.9 hPa | 0 mm | 1.79 m/s, 36° | - | - |
| 1778018135 | 11.11° C | 92% | 1010.9 hPa | 0 mm | 3.13 m/s, 33° | - | - |
| 1778017835 | 11.11° C | 92% | 1010.9 hPa | 0 mm | 2.68 m/s, 39° | - | - |
| 1778017535 | 11.11° C | 92% | 1010.9 hPa | 0 mm | 3.58 m/s, 37° | - | - |
| 1778017234 | 11.11° C | 92% | 1010.9 hPa | 0 mm | 1.34 m/s, 21° | - | - |
| 1778016935 | 11.11° C | 92% | 1010.9 hPa | 0 mm | 3.13 m/s, 22° | - | - |
| 1778016643 | 11.11° C | 92% | 1010.9 hPa | 0 mm | 2.68 m/s, 16° | - | - |
| 1778016335 | 11.11° C | 92% | 1011 hPa | 0 mm | 4.02 m/s, 30° | - | - |
| 1778016035 | 11.11° C | 92% | 1010.9 hPa | 0 mm | 2.68 m/s, 17° | - | - |
| 1778015735 | 11.11° C | 92% | 1011 hPa | 0 mm | 3.58 m/s, 31° | - | - |
| 1778015435 | 11.11° C | 92% | 1011 hPa | 0 mm | 4.02 m/s, 26° | - | - |
| 1778015135 | 11.11° C | 92% | 1010.9 hPa | 0 mm | 4.92 m/s, 27° | - | - |
| 1778014835 | 11.11° C | 92% | 1010.9 hPa | 0 mm | 4.92 m/s, 16° | - | - |
| 1778014535 | 11.11° C | 92% | 1011 hPa | 0 mm | 3.13 m/s, 24° | - | - |
| 1778014235 | 11.11° C | 92% | 1011 hPa | 0 mm | 5.81 m/s, 31° | - | - |
| 1778013935 | 11.67° C | 92% | 1011 hPa | 0 mm | 7.15 m/s, 21° | - | - |
| 1778013636 | 11.67° C | 92% | 1010.9 hPa | 0 mm | 5.36 m/s, 25° | - | - |
| 1778013335 | 11.67° C | 92% | 1010.9 hPa | 0 mm | 4.92 m/s, 28° | - | - |
* Rain latest hour (hover to see other rain measurements)
** Current wind speed in m/s (hover to see current wind gust speed)